WX4MMM Weather Reports


Display with metric or nautical units.
time (UTC)temp
F
wind
direction
speed
MPH
gust
MPH
rain 1hr
in
rain 24hr
in
rain mn
in
humidity
%
barometer
mb
20260902025004 78 106 0.0 0.0 0.00 0.00 0.00 88 1016.5
20260902024502 78 190 0.0 1.0 0.00 0.00 0.00 88 1016.5
20260902023504 78 339 0.0 1.0 0.00 0.00 0.00 87 1016.4
20260902023004 78 194 0.0 1.0 0.00 0.00 0.00 87 1016.4
20260902022004 78 324 1.0 1.0 0.00 0.00 0.00 87 1016.4
20260902021504 78 325 0.0 0.0 0.00 0.00 0.00 87 1016.3
20260902021003 78 325 0.0 0.0 0.00 0.00 0.00 87 1016.3
20260902020503 78 325 0.0 0.0 0.00 0.00 0.00 87 1016.3
20260902020003 78 325 0.0 0.0 0.00 0.00 0.00 87 1016.2
20260902015504 78 325 0.0 1.0 0.00 0.00 0.00 88 1016.1
20260902015003 79 271 0.0 0.0 0.00 0.00 0.00 88 1016.1
20260902014503 79 271 0.0 0.0 0.00 0.00 0.00 88 1016.0
20260902014004 79 271 0.0 0.0 0.00 0.00 0.00 88 1016.0
20260902013003 79 271 0.0 0.0 0.00 0.00 0.00 89 1015.9
20260902012505 79 272 0.0 0.0 0.00 0.00 0.00 88 1015.9
20260902012004 80 274 0.0 0.0 0.00 0.00 0.00 88 1015.8
20260902011503 80 322 0.0 0.0 0.00 0.00 0.00 88 1015.8
20260902011004 80 219 0.0 1.0 0.00 0.00 0.00 87 1015.7
20260902010503 80 268 0.0 0.0 0.00 0.00 0.00 87 1015.6
20260902010005 80 268 0.0 0.0 0.00 0.00 0.00 87 1015.6
20260902005503 80 299 0.0 0.0 0.00 0.00 0.00 87 1015.5
20260902005003 81 351 0.0 1.0 0.00 0.00 0.00 87 1015.4
20260902004503 81 203 0.0 1.0 0.00 0.00 0.00 86 1015.5
20260902004004 81 258 0.0 1.0 0.00 0.00 0.00 86 1015.5
20260902003502 81 244 0.0 0.0 0.00 0.00 0.00 86 1015.5
20260902003004 82 192 0.0 1.0 0.00 0.00 0.00 86 1015.4
20260902002505 82 235 0.0 1.0 0.00 0.00 0.00 85 1015.5
20260902002003 82 323 0.0 1.0 0.00 0.00 0.00 85 1015.4
20260902001502 82 269 0.0 1.0 0.00 0.00 0.00 85 1015.5
20260902001005 83 278 0.0 1.0 0.00 0.00 0.00 84 1015.5
20260902000504 83 330 0.0 1.0 0.00 0.00 0.00 84 1015.6
20260902000003 83 298 0.0 1.0 0.00 0.00 0.00 83 1015.5
20260901235503 84 186 0.0 1.0 0.00 0.00 0.00 82 1015.6
20260901234503 85 4 0.0 1.0 0.00 0.00 0.00 79 1015.6
20260901233503 85 256 0.0 1.0 0.00 0.00 0.00 78 1015.7
20260901233004 86 165 0.0 1.0 0.00 0.00 0.00 76 1015.8
20260901232503 86 217 0.0 1.0 0.00 0.00 0.00 75 1015.8
20260901232003 87 239 0.0 1.0 0.00 0.00 0.00 74 1015.8
20260901231004 88 323 0.0 1.0 0.00 0.00 0.00 70 1015.8
20260901230504 88 166 0.0 1.0 0.00 0.00 0.00 69 1015.8
20260901230002 89 238 0.0 1.0 0.00 0.00 0.00 68 1015.8
20260901225503 89 335 0.0 1.0 0.00 0.00 0.00 66 1015.8
20260901225003 89 242 0.0 1.0 0.00 0.00 0.00 65 1015.7
20260901224503 90 251 0.0 1.0 0.00 0.00 0.00 64 1015.7
20260901223503 90 303 0.0 1.0 0.00 0.00 0.00 62 1015.8
20260901223004 90 302 0.0 1.0 0.00 0.00 0.00 62 1015.7
20260901222504 91 283 0.0 1.0 0.00 0.00 0.00 61 1015.8
20260901222003 91 250 0.0 1.0 0.00 0.00 0.00 61 1015.7
20260901221506 91 320 0.0 1.0 0.00 0.00 0.00 59 1015.7
20260901221003 91 349 0.0 1.0 0.00 0.00 0.00 58 1015.7
20260901220004 92 268 0.0 1.0 0.00 0.00 0.00 56 1015.7
20260901215504 93 315 0.0 2.0 0.00 0.00 0.00 56 1015.7
20260901215003 93 271 1.0 1.0 0.00 0.00 0.00 52 1015.8
20260901214503 93 278 0.0 1.0 0.00 0.00 0.00 50 1015.8
20260901214003 94 288 1.0 2.0 0.00 0.00 0.00 47 1015.7
20260901213003 94 340 1.0 2.0 0.00 0.00 0.00 47 1015.8
20260901212503 94 345 0.0 1.0 0.00 0.00 0.00 50 1015.7
20260901212003 94 284 0.0 2.0 0.00 0.00 0.00 46 1015.7
20260901211502 94 352 1.0 2.0 0.00 0.00 0.00 47 1015.7
20260901211003 94 318 1.0 3.0 0.00 0.00 0.00 48 1015.7
20260901210003 94 0 1.0 2.0 0.00 0.00 0.00 46 1015.8
20260901205503 94 4 0.0 2.0 0.00 0.00 0.00 45 1015.8
20260901205004 94 313 1.0 2.0 0.00 0.00 0.00 46 1015.8
20260901204502 95 17 1.0 1.0 0.00 0.00 0.00 49 1015.8
20260901203504 94 341 1.0 2.0 0.00 0.00 0.00 46 1015.9
20260901203003 95 207 1.0 3.0 0.00 0.00 0.00 46 1015.8
20260901202502 95 194 1.0 2.0 0.00 0.00 0.00 45 1015.8
20260901202003 95 328 1.0 2.0 0.00 0.00 0.00 47 1015.8
20260901201503 95 15 1.0 2.0 0.00 0.00 0.00 48 1015.8
20260901201003 95 211 2.0 3.0 0.00 0.00 0.00 49 1015.9
20260901200504 95 288 1.0 2.0 0.00 0.00 0.00 48 1016.0
20260901200003 95 7 2.0 3.0 0.00 0.00 0.00 49 1016.0
20260901195503 95 297 0.0 3.0 0.00 0.00 0.00 50 1016.0
20260901195003 94 286 0.0 3.0 0.00 0.00 0.00 51 1016.0
20260901194504 94 183 1.0 3.0 0.00 0.00 0.00 50 1016.1
20260901193504 95 282 2.0 5.0 0.00 0.00 0.00 47 1016.2
20260901193003 95 353 1.0 3.0 0.00 0.00 0.00 50 1016.3
20260901192502 95 164 0.0 3.0 0.00 0.00 0.00 48 1016.3
20260901192003 95 41 1.0 3.0 0.00 0.00 0.00 52 1016.4
20260901191503 95 161 1.0 2.0 0.00 0.00 0.00 50 1016.4
20260901191003 95 272 1.0 3.0 0.00 0.00 0.00 50 1016.4
20260901190503 95 359 1.0 2.0 0.00 0.00 0.00 48 1016.5
20260901190003 94 30 2.0 3.0 0.00 0.00 0.00 50 1016.6
20260901185503 95 211 2.0 3.0 0.00 0.00 0.00 50 1016.6
20260901185004 95 324 1.0 2.0 0.00 0.00 0.00 49 1016.7
20260901184503 95 150 1.0 2.0 0.00 0.00 0.00 51 1016.7
20260901184003 94 201 1.0 2.0 0.00 0.00 0.00 50 1016.7
20260901183503 94 319 1.0 3.0 0.00 0.00 0.00 51 1016.7
20260901183003 95 301 1.0 3.0 0.00 0.00 0.00 49 1016.8
20260901182504 94 252 1.0 2.0 0.00 0.00 0.00 53 1016.8
20260901182004 95 0 1.0 5.0 0.00 0.00 0.00 50 1016.8
20260901181502 95 279 0.0 2.0 0.00 0.00 0.00 49 1016.7
20260901181003 95 44 1.0 2.0 0.00 0.00 0.00 50 1016.7
20260901180003 95 62 1.0 3.0 0.00 0.00 0.00 50 1016.9
20260901175504 95 256 0.0 1.0 0.00 0.00 0.00 49 1016.9
20260901175003 95 126 0.0 3.0 0.00 0.00 0.00 50 1016.9
20260901174503 94 249 0.0 3.0 0.00 0.00 0.00 50 1017.0
20260901174004 94 341 1.0 2.0 0.00 0.00 0.00 52 1017.0
20260901173503 94 114 2.0 3.0 0.00 0.00 0.00 52 1017.0
20260901173003 94 348 1.0 2.0 0.00 0.00 0.00 53 1017.1
20260901172503 94 99 1.0 3.0 0.00 0.00 0.00 52 1017.1
20260901171503 93 115 1.0 2.0 0.00 0.00 0.00 54 1017.1
20260901171003 93 145 1.0 2.0 0.00 0.00 0.00 56 1017.1
20260901170003 92 155 1.0 3.0 0.00 0.00 0.00 55 1017.3
20260901165503 92 153 1.0 2.0 0.00 0.00 0.00 55 1017.3
20260901165003 92 141 2.0 3.0 0.00 0.00 0.00 56 1017.3
20260901164503 92 15 1.0 3.0 0.00 0.00 0.00 57 1017.4
20260901164004 92 55 1.0 2.0 0.00 0.00 0.00 58 1017.4
20260901163504 92 113 0.0 3.0 0.00 0.00 0.00 57 1017.5
20260901162503 91 286 1.0 2.0 0.00 0.00 0.00 58 1017.6
20260901162003 91 209 1.0 3.0 0.00 0.00 0.00 59 1017.8
20260901161003 90 179 1.0 3.0 0.00 0.00 0.00 59 1017.9
20260901160503 90 155 2.0 5.0 0.00 0.00 0.00 62 1017.9
20260901160003 90 321 1.0 3.0 0.00 0.00 0.00 63 1018.0
20260901155503 89 259 1.0 2.0 0.00 0.00 0.00 61 1018.1
20260901155003 89 322 1.0 5.0 0.00 0.00 0.00 64 1018.1
20260901154503 89 36 1.0 3.0 0.00 0.00 0.00 63 1018.1
20260901154003 89 159 1.0 3.0 0.00 0.00 0.00 63 1018.2
20260901153503 89 3 1.0 3.0 0.00 0.00 0.00 66 1018.3
20260901153004 89 106 1.0 3.0 0.00 0.00 0.00 66 1018.4
20260901152503 88 355 0.0 2.0 0.00 0.00 0.00 67 1018.4
20260901152003 87 33 0.0 1.0 0.00 0.00 0.00 68 1018.4
20260901151503 87 132 1.0 2.0 0.00 0.00 0.00 67 1018.5
20260901151004 87 318 1.0 5.0 0.00 0.00 0.00 70 1018.5
20260901150003 87 67 0.0 2.0 0.00 0.00 0.00 70 1018.6
20260901145003 86 326 1.0 3.0 0.00 0.00 0.00 71 1018.6
20260901144503 86 345 1.0 2.0 0.00 0.00 0.00 71 1018.6
20260901143503 86 19 1.0 3.0 0.00 0.00 0.00 72 1018.6
20260901143004 86 355 1.0 2.0 0.00 0.00 0.00 72 1018.6
20260901142004 85 24 1.0 2.0 0.00 0.00 0.00 73 1018.6
20260901141503 84 98 1.0 3.0 0.00 0.00 0.00 73 1018.6
20260901141003 84 222 1.0 2.0 0.00 0.00 0.00 74 1018.6
20260901140503 83 120 0.0 3.0 0.00 0.00 0.00 75 1018.6
20260901140003 82 252 0.0 3.0 0.00 0.00 0.00 78 1018.6
20260901135504 81 217 1.0 2.0 0.00 0.00 0.00 80 1018.6
20260901134503 80 235 1.0 2.0 0.00 0.00 0.00 82 1018.6
20260901134003 80 58 0.0 1.0 0.00 0.00 0.00 83 1018.6
20260901133004 80 341 0.0 1.0 0.00 0.00 0.00 83 1018.6
20260901132503 79 23 1.0 2.0 0.00 0.00 0.00 84 1018.5
20260901132003 79 147 1.0 2.0 0.00 0.00 0.00 84 1018.5
20260901131503 79 176 1.0 2.0 0.00 0.00 0.00 84 1018.5
20260901130503 78 165 1.0 3.0 0.00 0.00 0.00 86 1018.5
20260901125003 77 347 1.0 1.0 0.00 0.00 0.00 88 1018.5
20260901124503 77 144 1.0 2.0 0.00 0.00 0.00 88 1018.5
20260901124003 76 151 1.0 2.0 0.00 0.00 0.00 90 1018.4
20260901123503 76 150 1.0 2.0 0.00 0.00 0.00 90 1018.4
20260901123003 75 146 0.0 1.0 0.00 0.00 0.00 92 1018.4
20260901122503 75 61 1.0 1.0 0.00 0.00 0.00 94 1018.4
20260901122003 74 153 1.0 2.0 0.00 0.00 0.00 96 1018.4
20260901121503 74 218 0.0 1.0 0.00 0.00 0.00 98 1018.4
20260901121003 73 91 0.0 0.0 0.00 0.00 0.00 98 1018.4
20260901120502 73 91 0.0 0.0 0.00 0.00 0.00 98 1018.4
20260901120003 73 91 0.0 0.0 0.00 0.00 0.00 98 1018.3
20260901115503 73 86 0.0 0.0 0.00 0.00 0.00 98 1018.2
20260901114503 72 107 0.0 1.0 0.00 0.00 0.00 98 1018.0
20260901114005 72 138 0.0 1.0 0.00 0.00 0.00 98 1018.0
20260901113505 72 75 0.0 1.0 0.00 0.00 0.00 98 1017.9
20260901113003 72 18 0.0 0.0 0.00 0.00 0.00 98 1017.9
20260901112503 72 18 0.0 1.0 0.00 0.00 0.00 98 1017.9
20260901112003 72 133 0.0 0.0 0.00 0.00 0.00 98 1017.9
20260901111003 72 19 0.0 1.0 0.00 0.00 0.00 98 1017.9
20260901110503 72 28 0.0 0.0 0.00 0.00 0.00 98 1017.9
20260901110004 72 159 0.0 1.0 0.00 0.00 0.00 98 1017.8
20260901105504 72 155 0.0 1.0 0.00 0.00 0.00 98 1017.8
20260901105003 72 56 0.0 0.0 0.00 0.00 0.00 97 1017.8
20260901104504 72 56 0.0 0.0 0.00 0.00 0.00 97 1017.7
20260901104003 72 56 0.0 1.0 0.00 0.00 0.00 97 1017.7
20260901103505 72 112 0.0 0.0 0.00 0.00 0.00 97 1017.6
20260901103003 72 112 0.0 0.0 0.00 0.00 0.00 97 1017.6
20260901102503 72 112 0.0 1.0 0.00 0.00 0.00 97 1017.5
20260901102004 73 187 0.0 0.0 0.00 0.00 0.00 97 1017.5
20260901101503 73 47 0.0 0.0 0.00 0.00 0.00 97 1017.5
20260901101003 73 47 0.0 1.0 0.00 0.00 0.00 97 1017.5
20260901100503 72 36 0.0 1.0 0.00 0.00 0.00 97 1017.5
20260901095503 73 56 0.0 0.0 0.00 0.00 0.00 97 1017.5
20260901095003 73 269 0.0 1.0 0.00 0.00 0.00 96 1017.5
20260901094504 73 269 0.0 1.0 0.00 0.00 0.00 96 1017.4
20260901094003 73 329 0.0 1.0 0.00 0.00 0.00 96 1017.4
20260901093503 73 258 0.0 1.0 0.00 0.00 0.00 96 1017.4
20260901093003 73 192 0.0 1.0 0.00 0.00 0.00 96 1017.4
20260901092504 73 195 0.0 1.0 0.00 0.00 0.00 96 1017.4
20260901092005 73 122 0.0 0.0 0.00 0.00 0.00 95 1017.5
20260901091503 73 106 0.0 0.0 0.00 0.00 0.00 95 1017.5
20260901090503 73 106 0.0 1.0 0.00 0.00 0.00 95 1017.5
20260901090003 73 92 0.0 1.0 0.00 0.00 0.00 95 1017.5
20260901085503 73 110 0.0 0.0 0.00 0.00 0.00 95 1017.5
20260901085003 73 110 0.0 0.0 0.00 0.00 0.00 95 1017.5
20260901084503 73 193 0.0 0.0 0.00 0.00 0.00 94 1017.5
20260901084003 73 193 0.0 0.0 0.00 0.00 0.00 94 1017.6
20260901083503 73 193 0.0 0.0 0.00 0.00 0.00 94 1017.7
20260901083003 73 193 0.0 0.0 0.00 0.00 0.00 94 1017.7
20260901082503 74 193 0.0 0.0 0.00 0.00 0.00 94 1017.7
20260901082004 74 193 0.0 0.0 0.00 0.00 0.00 93 1017.7
20260901081504 74 193 0.0 0.0 0.00 0.00 0.00 93 1017.8
20260901081004 74 193 0.0 0.0 0.00 0.00 0.00 93 1017.8
20260901080004 74 320 0.0 0.0 0.00 0.00 0.00 94 1017.7
20260901075503 74 320 0.0 0.0 0.00 0.00 0.00 93 1017.8
20260901074004 74 303 0.0 0.0 0.00 0.00 0.00 93 1017.8
20260901073504 74 303 0.0 0.0 0.00 0.00 0.00 93 1017.8
20260901073003 74 303 0.0 1.0 0.00 0.00 0.00 93 1017.9
20260901072503 74 303 0.0 1.0 0.00 0.00 0.00 92 1017.9
20260901072003 74 268 0.0 0.0 0.00 0.00 0.00 92 1017.9
20260901071503 74 256 0.0 0.0 0.00 0.00 0.00 92 1017.9
20260901071003 74 253 0.0 0.0 0.00 0.00 0.00 92 1018.0
20260901070503 75 253 0.0 1.0 0.00 0.00 0.00 92 1018.0
20260901070005 75 294 0.0 0.0 0.00 0.00 0.00 91 1018.1
20260901065504 75 294 0.0 0.0 0.00 0.00 0.00 92 1018.1
20260901064503 75 294 0.0 0.0 0.00 0.00 0.00 92 1018.1
20260901063503 75 300 0.0 1.0 0.00 0.00 0.00 92 1018.2
20260901063004 74 293 0.0 1.0 0.00 0.00 0.00 92 1018.2
20260901062503 74 302 0.0 0.0 0.00 0.00 0.00 92 1018.2
20260901062004 75 295 0.0 1.0 0.00 0.00 0.00 92 1018.2
20260901061503 75 278 0.0 0.0 0.00 0.00 0.00 92 1018.3
20260901061004 75 267 0.0 0.0 0.00 0.00 0.00 91 1018.3
20260901060504 75 190 0.0 0.0 0.00 0.00 0.00 92 1018.3
20260901060002 75 190 0.0 0.0 0.00 0.00 0.00 91 1018.4
20260901055504 75 136 0.0 0.0 0.00 0.00 0.00 92 1018.4
20260901055003 75 136 0.0 0.0 0.00 0.00 0.00 92 1018.4
20260901054503 75 352 0.0 0.0 0.00 0.00 0.00 92 1018.5
20260901054003 74 338 0.0 1.0 0.00 0.00 0.00 92 1018.5
20260901053503 74 282 0.0 0.0 0.00 0.00 0.00 92 1018.5
20260901052503 74 282 0.0 0.0 0.00 0.00 0.00 93 1018.5
20260901052004 74 282 0.0 0.0 0.00 0.00 0.00 93 1018.5
20260901051503 75 282 0.0 0.0 0.00 0.00 0.00 93 1018.5
20260901051004 75 282 0.0 0.0 0.00 0.00 0.00 93 1018.5
20260901050503 75 282 0.0 0.0 0.00 0.00 0.00 93 1018.5
20260901050003 75 282 0.0 0.0 0.00 0.00 0.00 92 1018.5
20260901045504 75 282 0.0 0.0 0.00 0.00 0.00 93 1018.4
20260901045004 75 282 0.0 0.0 0.00 0.00 0.00 92 1018.4
20260901044505 75 282 0.0 0.0 0.00 0.00 0.00 92 1018.4
20260901044003 75 282 0.0 0.0 0.00 0.00 0.00 92 1018.4
20260901043003 75 282 0.0 0.0 0.00 0.00 0.00 92 1018.4
20260901042503 75 282 0.0 0.0 0.00 0.00 0.00 91 1018.4
20260901041503 75 111 0.0 0.0 0.00 0.00 0.00 93 1018.3
20260901041005 75 177 0.0 0.0 0.00 0.00 0.00 93 1018.3
20260901040503 75 171 0.0 0.0 0.00 0.00 0.00 93 1018.3
20260901040003 75 335 0.0 0.0 0.00 0.00 0.00 93 1018.3
20260901035504 75 335 0.0 0.0 0.00 0.00 0.00 94 1018.3
20260901034503 74 65 0.0 0.0 0.00 0.00 0.00 92 1018.2
20260901034003 74 65 0.0 1.0 0.00 0.00 0.00 92 1018.2
20260901033003 75 320 0.0 0.0 0.00 0.00 0.00 92 1018.2
20260901032504 75 320 0.0 1.0 0.00 0.00 0.00 91 1018.2
20260901031503 75 346 0.0 0.0 0.00 0.00 0.00 93 1018.0
20260901031003 75 258 0.0 1.0 0.00 0.00 0.00 93 1018.0
20260901030503 75 202 0.0 1.0 0.00 0.00 0.00 94 1018.0
20260901030004 75 286 0.0 0.0 0.00 0.00 0.00 93 1018.1
20260901025504 75 286 0.0 0.0 0.00 0.00 0.00 93 1018.1